Avalon School, Santa Catalina Island Weather observations

Data are for 10 minute period ending at time listed.
 Day   Time   Solar   Ave.   Ave.  Ave.  Vector    Max.   Stn.    Total
  of    of     Rad.   Air    Rel.  Wind   Wind     Wind   Baro.  Precip.
Year   Day            Temp.  Hum.  Speed  Dir.     Gust   Pres.         
2016   (PST)   W/m2    F      %     mph   deg.      mph    mb.     in.  
------------------------------------------------------------------------
 150    0:00    0.0    61   83.9     2    156.3     5.4      0.0   0.05  
 150    0:10    0.0    61   84.0     2    136.1     3.6      0.0   0.00  
 150    0:20    0.0    61   84.0     1    187.5     3.6      0.0   0.00  
 150    0:30    0.0    61   83.9     1    189.6     4.8      0.0   0.01  
 150    0:40    0.0    61   83.8     2    231.2     3.6      0.0   0.46  
 150    0:50    0.0    61   83.6     2    267.8     4.2      0.0   1.61  
 150    1:00    0.0    61   83.5     2    224.8     3.6      0.0   1.09  
 150    1:10    0.0    61   83.4     2    187.7     4.8      0.0   0.21  
 150    1:20    0.0    61   83.4     2    271.8     4.2      0.0   0.39  
 150    1:30    0.0    61   83.3     1    278.6     4.2      0.0   0.80  
 150    1:40    0.0    61   83.1     0    249.3     2.4      0.0   1.60  
 150    1:50    0.0    61   82.8     0    219.9     1.8      0.0   1.70  
 150    2:00    0.0    61   82.5     0    135.3     2.4      0.0   1.47  
 150    2:10    0.0    61   81.9     2    110.3     4.2      0.0   1.89  
 150    2:20    0.0    62   81.4     2    120.8     4.2      0.0   1.80  
 150    2:30    0.0    62   81.5     2    111.6     4.2      0.0   1.85  
 150    2:40    0.0    61   82.0     2    161.0     4.8      0.0   0.92  
 150    2:50    0.0    61   81.8     2    260.9     3.6      0.0   1.27  
 150    3:00    0.0    61   81.0     1    315.4     3.0      0.0   1.88  
 150    3:10    0.0    62   80.5     2     97.3     4.2      0.0   1.57  
 150    3:20    0.0    61   80.3     1    254.2     2.4      0.0   0.47  
 150    3:30    0.0    61   80.6     0    240.9     1.8      0.0   0.00  
 150    3:40    0.0    60   81.8     1    246.4     2.4      0.0   0.66  
 150    3:50    0.0    60   82.0     0    256.5     1.2      0.0   1.01  
 150    4:00    0.0    60   82.0     1     63.4     2.4      0.0   2.00  
 150    4:10    0.0    60   81.6     1     86.8     3.0      0.0   0.19  
 150    4:20    0.0    61   81.4     0    172.8     2.4      0.0   0.00  
 150    4:30    0.0    61   81.1     1     75.6     3.0      0.0   0.01  
 150    4:40    0.0    61   80.1     2     95.9     3.6      0.0   0.00  
 150    4:50    1.0    61   80.2     0    134.7     1.2      0.0   0.00  
 150    5:00    3.0    61   80.5     0      0.0     0.0      0.0   0.00  
 150    5:10    5.0    61   80.5     0    141.7     1.8      0.0   0.00  
 150    5:20    9.0    61   80.5     0      0.0     0.0      0.0   0.00  
 150    5:30   13.0    61   80.4     0      0.0     0.0      0.0   0.00  
 150    5:40   18.0    62   80.0     0      0.0     0.0      0.0   0.00  
 150    5:50   25.0    62   79.4     1    288.1     3.0      0.0   0.00  
 150    6:00   30.0    62   78.8     1    228.3     3.0      0.0   0.00  
 150    6:10   47.0    62   78.6     0    185.3     2.4      0.0   0.00  
 150    6:20   74.0    63   78.1     1    171.6     3.0      0.0   0.00  
 150    6:30  103.0    63   77.7     2    133.7     3.6      0.0   0.01  
 150    6:40  127.0    63   77.4     3    290.0     6.0      0.0   0.00  
 150    6:50  126.0    64   77.4     3    300.4     6.6      0.0   0.02  
 150    7:00  138.0    64   76.8     3    108.2     4.8      0.0   0.10  
 150    7:10  152.0    64   76.3     2     59.4     5.4      0.0   0.00  
 150    7:20  180.0    64   75.7     3     61.0     6.0      0.0   0.25  
 150    7:30  232.0    65   74.7     3     73.6     5.4      0.0   0.07  
 150    7:40  188.0    64   74.1     4    102.4     6.6      0.0   0.00  
 150    7:50  217.0    65   73.8     3     82.7     4.2      0.0   0.00  
 150    8:00  214.0    65   74.4     3    107.6     6.0      0.0   0.00  
 150    8:10  211.0    65   74.6     3     96.0     6.0      0.0   0.00  
 150    8:20  227.0    65   75.0     3    102.1     6.0      0.0   0.00  
 150    8:30  224.0    65   74.5     3    104.6     6.0      0.0   0.00  
 150    8:40  244.0    65   73.6     3    100.2     4.8      0.0   0.03  
 150    8:50  226.0    65   72.9     3    120.2     7.2      0.0   0.00  
 150    9:00  225.0    65   73.3     4     99.2     6.0      0.0   0.14  
 150    9:10  238.0    65   74.4     4    109.9     6.6      0.0   1.97  
 150    9:20  218.0    65   74.4     3    114.1     6.6      0.0   1.95  
 150    9:30  198.0    65   73.6     3    307.4     6.0      0.0   1.97  
 150    9:40  183.0    65   74.8     2     96.7     5.4      0.0   2.00  
 150    9:50  175.0    65   77.3     3     97.0     6.0      0.0   0.65  
 150   10:00  195.0    65   78.0     3    113.0     6.0      0.0   0.00  
 150   10:10  214.0    65   78.8     4     95.3     6.6      0.0   0.00  
 150   10:20  236.0    65   79.0     3    102.7     6.6      0.0   0.23  
 150   10:30  238.0    65   79.4     3    109.7     6.6      0.0   2.00  
 150   10:40  265.0    65   78.7     3     95.1     7.2      0.0   2.00  
 150   10:50  272.0    65   78.2     4    102.8     8.4      0.0   2.00  
 150   11:00  237.0    65   78.2     4     97.9     7.2      0.0   2.00  
 150   11:10  227.0    65   78.5     3    105.2     7.2      0.0   1.99  
 150   11:20  253.0    65   78.3     4     98.3     7.2      0.0   2.00  
 150   11:30  244.0    65   78.9     4    106.7     7.8      0.0   1.96  
 150   11:40  222.0    65   78.1     3    100.5     6.6      0.0   1.94  
 150   11:50  204.0    65   77.8     4     91.2     7.2      0.0   1.28  
 150   12:00  208.0    65   78.9     4    108.9     7.2      0.0   1.03  
 150   12:10  272.0    65   78.6     4    103.5     7.2      0.0   1.94  
 150   12:20  329.0    65   77.9     4     97.5     6.6      0.0   1.99  
 150   12:30  345.0    66   77.6     4     93.8     7.2      0.0   1.89  
 150   12:40  344.0    66   77.7     5    123.7     8.4      0.0   1.03  
 150   12:50  327.0    66   77.3     4    101.9     8.4      0.0   1.87  
 150   13:00  330.0    66   77.2     3    103.6     7.8      0.0   1.40  
 150   13:10  435.0    66   77.3     4    112.0     7.8      0.0   1.96  
 150   13:20  375.0    66   77.6     4     98.8     8.4      0.0   2.00  
 150   13:30  353.0    66   77.1     4     93.6     9.0      0.0   1.78  

Return to Avalon School graphs page.


Western Regional Climate Center,wrcc@dri.edu